Lexington Weather

Lexington, Massachusetts, USA

54°F
5/18/2024 12:30am 
  • Lexington Conditions: Clear
  • Temperature: 54.1°F / 12.3°CColder 1.1°F than last hour.
  • Dew Point: 50.0°FDecreased 0.2°Fsince last hour.
  • Relative Humidity: 86%Increased 3.0% since last hour.
  • Wind: Calm, 10-min avg: Calm, gust: None
  • Barometer: 29.96 in Steady
  • Visibility: 10 miles
  • Rain Today: 0.00 in
  •   

Regional Weather Roundup
for Boston, MA

        
000
ASUS41 KBOX 120010
RWRBOX

REGIONAL WEATHER ROUNDUP
NATIONAL WEATHER SERVICE BOSTON/NORTON MA
800 PM EDT SAT MAY 11 2024

NOTE:  "FAIR" INDICATES FEW OR NO CLOUDS BELOW 12,000 FEET WITH NO 
SIGNIFICANT WEATHER AND/OR OBSTRUCTIONS TO VISIBILITY.

MAZALL-120100-
EASTERN MASSACHUSETTS
  
CITY           SKY/WX    TMP DP  RH WIND       PRES   REMARKS
BOSTON         FAIR      47  40  76 SE5       29.88S                  
6HR MIN TEMP:  47; 6HR MAX TEMP:  53;                                

BEVERLY        FAIR      46  39  76 CALM      29.87S                  
LAWRENCE       FAIR      50  36  58 E3        29.89S                  
BEDFORD        FAIR      48  37  65 SE7       29.87R                  
NORWOOD        FAIR      50  39  66 NE5       29.88R                  
MARSHFIELD     FAIR      48  41  76 CALM      29.88S                  
PLYMOUTH       FAIR      47  40  76 NE6       29.87R                  
TAUNTON        FAIR      50  38  63 E3        29.87R                  
NEW BEDFORD    FAIR      48  39  71 NE8       29.86R                  
$$

MAZALL-120100-
CAPE COD AND THE ISLANDS
  
CITY           SKY/WX    TMP DP  RH WIND       PRES   REMARKS
FALMOUTH       NOT AVBL                                               
HYANNIS        MOCLDY    47  40  76 NE7       29.85R                  
CHATHAM        MOCLDY    48  40  73 E8        29.87R                  
PROVINCETOWN   FAIR      46  43  89 NE6       29.88S                  
NANTUCKET      FAIR      44  39  82 NE8       29.86R                  
MARTHAS VNYRD  FAIR      47  39  74 NE7       29.86                   
$$
 
MAZALL-120100-
CENTRAL AND WESTERN MASSACHUSETTS
  
CITY           SKY/WX    TMP DP  RH WIND       PRES   REMARKS
WORCESTER      FAIR      49  34  56 E5        29.86R                  
6HR MIN TEMP:  49; 6HR MAX TEMP:  56;                                

FITCHBURG      FAIR      51  37  58 SE10      29.88R                  
ORANGE         MOCLDY    53  39  59 SE9       29.85R                  
SPRINGFIELD    CLOUDY    55  38  52 E7        29.81R                  
WESTFIELD      CLOUDY    56  39  53 SE7       29.83R                  
NORTH ADAMS    CLOUDY    58  36  43 SE8       29.81R                  
PITTSFIELD     CLOUDY    53  38  56 SE7       29.80R                  
$$
 
RIZALL-120100-
RHODE ISLAND
  
CITY           SKY/WX    TMP DP  RH WIND       PRES   REMARKS
PROVIDENCE     MOCLDY    49  40  71 E9        29.87R                  
6HR MIN TEMP:  49; 6HR MAX TEMP:  59;                                

NEWPORT        FAIR      48  38  68 E5        29.86R                  
BLOCK ISLAND   CLOUDY    47  42  83 E9        29.87S                  
SMITHFIELD     FAIR      48  37  65 E3        29.87R                  
WESTERLY       MOCLDY    49  42  77 S5        29.87R                  
$$
 
CTZALL-120100-
CONNECTICUT
  
CITY           SKY/WX    TMP DP  RH WIND       PRES   REMARKS
BRADLEY INTL   MOCLDY    55  43  63 S15       29.84R                  
6HR MIN TEMP:  55; 6HR MAX TEMP:  66;                                

HARTFORD       CLOUDY    53  43  68 SE7       29.85R                  
PLAINVILLE     CLOUDY    55  42  62 S9        29.84R                  
BRIDGEPORT     FAIR      53  43  68 S9        29.86R                  
DANBURY        FAIR      54  42  64 S6        29.84R                  
GROTON         MOCLDY    49  43  80 S8        29.86S                  
NEW HAVEN      CLOUDY    54  44  69 SE9       29.86R                  
CHESTER        MOCLDY    50  43  76 SE5       29.86S                  
MERIDEN        CLOUDY    53  42  66 S8        29.85R                  
WILLIMANTIC    MOCLDY    50  39  66 S6        29.86R                  
OXFORD         FAIR      50  44  80 SE7       29.85R                  
$$

MEZ002-015-021-024-NHZ003-005-008-011-012-014-VTZ005-008-120100-
NORTHERN NEW ENGLAND
  
CITY           SKY/WX    TMP DP  RH WIND       PRES   REMARKS
PORTLAND ME    MOCLDY    49  38  65 S5        29.88S                  
6HR MIN TEMP:  49; 6HR MAX TEMP:  55;                                

BANGOR ME      MOCLDY    51  38  60 S7        29.86R                  
CONCORD NH     MOCLDY    50  36  58 SE5       29.87R                  
MANCHESTER NH  MOCLDY    51  36  56 CALM      29.86S                  
NASHUA NH      FAIR      52  35  52 E5        29.88S                  
PORTSMOUTH NH  PTCLDY    48  39  69 E6        29.88R                  
JAFFREY NH       N/A     51  35  54 CALM      29.86R                  
KEENE NH       FAIR      53  38  56 S3        29.85R                  
BURLINGTON VT  LGT RAIN  57  43  59 S8        29.78R                  
MT. WASHINGTON CLOUDY    28  25  86 SE5         N/A  WCI  23          
$$

NYZ052-076-120100-
EASTERN NEW YORK
  
CITY           SKY/WX    TMP DP  RH WIND       PRES   REMARKS
ALBANY         CLOUDY    58  43  57 SE3       29.79S                  
6HR MIN TEMP:  58; 6HR MAX TEMP:  67;                                

NEW YORK CITY  MOCLDY    52  38  58 S12       29.85R                  
6HR MIN TEMP:  52; 6HR MAX TEMP:  59;                                

$$
 
ANZALL-120100-
MARINE OBSERVATIONS
  
STATION/POSITION TIME  TEMP    WIND        PRES    VSBY  WAVE
                       AIR SEA DIR/SP/G                  HT/PER
                 (UTC) (F)     (DEG/KT/KT) (MB)    (MI)  (FT/S)
BOSTON BUOY      2350   47 50   30/  2/  4 1012.3R         3/ 7
BUZZARDS BAY     2300   49      50/ 17/ 18 1011.2S
NANTUCKET SOUND  2350   49 53   50/ 12/ 14 1010.8R         2/ 3
MASS BAY-STELLWA NOT AVBL
ISLE OF SHOALS   2300   49        CALM     1011.3R
S OF BLOCK IS    2356      49                N/A           5/ 7
$$

......................KEY.........................
  SKY/WX - SKY CONDITION/PRESENT WEATHER
  TMP    - TEMPERATURE IN FAHRENHEIT
  DWPT   - DEWPOINT IN FAHRENHEIT
  RH     - RELATIVE HUMIDITY IN PERCENT
  WIND   - DIRECTION AND SPEED IN MPH
  PRES   - MEAN SEA LEVEL PRESSURE IN INCHES OF HG
  WCI    - WIND CHILL INDEX
  VSB    - VISIBILITY IN MILES
  HX     - HEAT INDEX
  TC     - TEMPERATURE IN CELSIUS
  VRB    - VARIABLE WIND DIRECTION
  N/A    - NOT AVAILABLE
  
      

Other recent Regional Weather Roundups

Sat May 18, 12:10am EDT

Fri May 17, 11:10pm EDT

Fri May 17, 10:10pm EDT

Fri May 17, 9:10pm EDT

Fri May 17, 8:10pm EDT

Fri May 17, 7:10pm EDT

Fri May 17, 6:10pm EDT

Fri May 17, 5:10pm EDT

Fri May 17, 4:10pm EDT

Fri May 17, 3:10pm EDT

Fri May 17, 2:10pm EDT

Fri May 17, 1:10pm EDT

Fri May 17, 12:10pm EDT

Fri May 17, 11:10am EDT

Fri May 17, 10:10am EDT

Fri May 17, 9:10am EDT

Fri May 17, 8:10am EDT

Fri May 17, 7:10am EDT

Fri May 17, 6:10am EDT

Fri May 17, 5:10am EDT

Fri May 17, 4:10am EDT

Fri May 17, 3:10am EDT

Fri May 17, 2:10am EDT

Fri May 17, 1:10am EDT

Fri May 17, 12:10am EDT

Thu May 16, 11:10pm EDT

Thu May 16, 10:10pm EDT

Thu May 16, 9:10pm EDT

Thu May 16, 8:10pm EDT

Thu May 16, 7:10pm EDT

Thu May 16, 6:10pm EDT

Thu May 16, 5:10pm EDT

Thu May 16, 4:10pm EDT

Thu May 16, 3:10pm EDT

Thu May 16, 2:10pm EDT

Thu May 16, 1:10pm EDT

Thu May 16, 12:10pm EDT

Thu May 16, 11:10am EDT

Thu May 16, 10:10am EDT

Thu May 16, 9:10am EDT

Thu May 16, 8:10am EDT

Thu May 16, 7:10am EDT

Thu May 16, 6:10am EDT

Thu May 16, 5:10am EDT

Thu May 16, 4:10am EDT

Thu May 16, 3:10am EDT

Thu May 16, 2:10am EDT

Thu May 16, 1:10am EDT

Thu May 16, 12:10am EDT

Wed May 15, 11:10pm EDT

Wed May 15, 10:10pm EDT

Wed May 15, 9:10pm EDT

Wed May 15, 8:10pm EDT

Wed May 15, 7:10pm EDT

Wed May 15, 6:10pm EDT

Wed May 15, 5:10pm EDT

Wed May 15, 4:10pm EDT

Wed May 15, 3:10pm EDT

Wed May 15, 2:10pm EDT

Wed May 15, 1:10pm EDT

Wed May 15, 12:10pm EDT

Wed May 15, 11:10am EDT

Wed May 15, 10:10am EDT

Wed May 15, 9:10am EDT

Wed May 15, 8:10am EDT

Wed May 15, 7:10am EDT

Wed May 15, 6:10am EDT

Wed May 15, 5:10am EDT

Wed May 15, 4:10am EDT

Wed May 15, 3:10am EDT

Wed May 15, 2:10am EDT

Wed May 15, 1:10am EDT

Wed May 15, 12:10am EDT

Tue May 14, 11:10pm EDT

Tue May 14, 10:10pm EDT

Tue May 14, 9:10pm EDT

Tue May 14, 8:10pm EDT

Tue May 14, 7:10pm EDT

Tue May 14, 6:10pm EDT

Tue May 14, 5:10pm EDT

Tue May 14, 4:10pm EDT

Tue May 14, 3:10pm EDT

Tue May 14, 2:10pm EDT

Tue May 14, 1:10pm EDT

Tue May 14, 12:10pm EDT

Tue May 14, 11:10am EDT

Tue May 14, 10:10am EDT

Tue May 14, 9:10am EDT

Tue May 14, 8:10am EDT

Tue May 14, 7:10am EDT

Tue May 14, 6:10am EDT

Tue May 14, 5:10am EDT

Tue May 14, 4:10am EDT

Tue May 14, 3:10am EDT

Tue May 14, 2:10am EDT

Tue May 14, 1:10am EDT

Tue May 14, 12:10am EDT

Mon May 13, 11:10pm EDT

Mon May 13, 10:10pm EDT

Mon May 13, 9:10pm EDT

Mon May 13, 8:10pm EDT

Mon May 13, 7:10pm EDT

Mon May 13, 6:10pm EDT

Mon May 13, 5:10pm EDT

Mon May 13, 4:10pm EDT

Mon May 13, 3:10pm EDT

Mon May 13, 2:10pm EDT

Mon May 13, 1:10pm EDT

Mon May 13, 12:10pm EDT

Mon May 13, 11:10am EDT

Mon May 13, 10:10am EDT

Mon May 13, 9:10am EDT

Mon May 13, 8:10am EDT

Mon May 13, 7:10am EDT

Mon May 13, 6:10am EDT

Mon May 13, 5:10am EDT

Mon May 13, 4:10am EDT

Mon May 13, 3:10am EDT

Mon May 13, 2:10am EDT

Mon May 13, 1:10am EDT

Mon May 13, 12:10am EDT

Sun May 12, 11:10pm EDT

Sun May 12, 10:10pm EDT

Sun May 12, 9:10pm EDT

Sun May 12, 8:10pm EDT

Sun May 12, 7:10pm EDT

Sun May 12, 6:10pm EDT

Sun May 12, 5:10pm EDT

Sun May 12, 4:10pm EDT

Sun May 12, 3:10pm EDT

Sun May 12, 2:10pm EDT

Sun May 12, 1:10pm EDT

Sun May 12, 12:10pm EDT

Sun May 12, 11:10am EDT

Sun May 12, 10:10am EDT

Sun May 12, 9:10am EDT

Sun May 12, 8:10am EDT

Sun May 12, 7:10am EDT

Sun May 12, 6:10am EDT

Sun May 12, 5:10am EDT

Sun May 12, 4:10am EDT

Sun May 12, 3:10am EDT

Sun May 12, 2:10am EDT

Sun May 12, 1:10am EDT

Sun May 12, 12:10am EDT

Sat May 11, 11:10pm EDT

Sat May 11, 10:10pm EDT

Sat May 11, 9:10pm EDT

Sat May 11, 7:10pm EDT

Sat May 11, 6:10pm EDT

Sat May 11, 5:10pm EDT

Sat May 11, 4:10pm EDT

Sat May 11, 3:10pm EDT

Sat May 11, 2:10pm EDT

Sat May 11, 1:10pm EDT

Sat May 11, 12:10pm EDT

Sat May 11, 11:10am EDT

Sat May 11, 10:10am EDT

Sat May 11, 9:10am EDT

Sat May 11, 8:10am EDT

Sat May 11, 7:10am EDT

Sat May 11, 6:10am EDT

Sat May 11, 5:10am EDT

Sat May 11, 4:10am EDT

Sat May 11, 3:10am EDT

Sat May 11, 2:10am EDT

Sat May 11, 1:10am EDT